Regional Weather Roundup
Issued by NWS

Home | Current Version | Previous Version | Text Only | Print | Product List | Glossary On
Versions: 1 2 3 4 5 6 7 8 9 10 11 12 13 14 15 16 17 18 19 20 21 22 23 24 25 26 27 28 29 30 31 32 33 34 35 36 37 38 39 40 41 42 43 44 45 46 47 48 49 50
000
ASUS43 KDTX 300301
RWRMI
MICHIGAN HOURLY REGIONAL WEATHER ROUNDUP
NATIONAL WEATHER SERVICE DETROIT/PONTIAC MI
1100 PM EDT SAT APR 29 2017

NOTE: "FAIR" INDICATES FEW OR NO CLOUDS BELOW 12,000 FEET WITH NO
SIGNIFICANT WEATHER AND/OR OBSTRUCTION TO VISIBILITY.

MIZ047>049-052>055-059>063-066>070-074>076-081>083-300400-
SOUTHEAST LOWER MICHIGAN

CITY           SKY/WX    TMP DP  RH WIND       PRES   REMARKS
ADRIAN         CLOUDY    46  31  55 E17       30.14F
ALMA           LGT RAIN  42  37  79 NE13G20   30.25S
ANN ARBOR      CLOUDY    47  32  56 N12       30.18F
BAD AXE        CLOUDY    41  31  65 NE8       30.29F
CARO           CLOUDY    40  34  77 E6        30.25F
DETROIT CITY   CLOUDY    43  30  60 N14       30.25R
DETROIT        CLOUDY    46  30  53 NE15      30.20F
FLINT          CLOUDY    44  33  65 E14       30.23F
GROSSE ILE     CLOUDY    44  33  64 NE16      30.19F
HILLSDALE      CLOUDY    45  32  61 NE15G22   30.09F
HOWELL         CLOUDY    46  29  52 NE10      30.20F

CITY           SKY/WX    TMP DP  RH WIND       PRES   REMARKS
JACKSON        CLOUDY    48  30  49 NE20      30.14F
LAMBERTVILLE   CLOUDY    45  34  66 NE9       30.16F
LANSING        CLOUDY    46  35  65 E13       30.21F
LAPEER         CLOUDY    41  32  69 NE7       30.26S
MASON          CLOUDY    47  33  58 E14G21    30.18F
MONROE         CLOUDY    45  32  60 NE9G21    30.17F
MT. CLEMENS    CLOUDY    42  32  69 N12       30.24R
PONTIAC        CLOUDY    43  29  57 NE13      30.21S
PORT HOPE        N/A     43  34  70 NE9       30.30R
PORT HURON     CLOUDY    39  32  75 N7        30.28R WCI  34
TRI CITIES     CLOUDY    43  35  73 E12       30.26F
MIDLAND        CLOUDY    45  33  62 NE9       30.25F
TROY           CLOUDY    44  28  54 NE15      30.25S
SAGINAW HB     CLOUDY    41  34  75 NE9       30.25F
$$
MIZ043>046-050>051-056>058-064>065-071>073-077>080-300400-
SOUTHWEST LOWER MICHIGAN

CITY           SKY/WX    TMP DP  RH WIND       PRES   REMARKS
BATTLE CREEK   LGT RAIN  48  39  71 NE14G29   30.11F
BENTON HARBOR  RAIN      46  42  86 E24G35    29.99F FOG
BIG RAPIDS     CLOUDY    42  36  79 E13       30.22S
COLDWATER      CLOUDY    48  33  54 E23G29    30.07F
FREMONT        CLOUDY    44  39  82 E13G20    30.19F
HOLLAND        RAIN      44  39  82 E21G29    30.10F
GRAND RAPIDS   LGT RAIN  44  42  93 E18G26    30.19S FOG
IONIA          LGT RAIN  43  38  82 E10G24    30.22S
KALAMAZOO      LGT RAIN  48  40  73 NE8       30.08F
LUDINGTON      LGT RAIN  40  37  89 NE5       30.22S
MARSHALL       CLOUDY    49  30  47 NE14G23   30.11F
MOUNT PLEASANT LGT RAIN  42  35  74 E8        30.25R
MUSKEGON       LGT RAIN  46  42  86 E10       30.17F
SOUTH HAVEN    LGT RAIN  44  42  93 E17G30    30.03F
$$
MIZ016>042-300400-
NORTHERN LOWER MICHIGAN

CITY           SKY/WX    TMP DP  RH WIND       PRES   REMARKS
ALPENA         CLOUDY    45  31  58 N9        30.30F
BEAVER ISLAND  CLOUDY    40  28  62 NE9       30.32S WCI  34
BELLAIRE       CLOUDY    45  30  56 N5        30.28F
CADILLAC       RAIN      43  36  78 E10G17    30.23R
CHARLEVOIX     MOCLDY    45  29  55 NE8       30.32S
FRANKFORT      CLOUDY    44  27  51 NE6       30.24F
GAYLORD        CLOUDY    46  27  47 NE7       30.27S
GRAYLING       CLOUDY    46  28  49 E8        30.27F
HARBOR SPRINGS CLOUDY    42  26  53 NE5       30.32R
HOUGHTON LAKE  LGT RAIN  43  35  73 E7        30.25F
MANISTEE       LGT RAIN  45  28  51 E9        30.22S
OSCODA         LGT RAIN  47  37  68 S5        30.29S
PELLSTON       CLOUDY    41  26  55 N5        30.33R
ROGERS CITY    CLOUDY    42  31  65 CALM      30.32S
TRAVERSE CITY  CLOUDY    43  34  70 NE8       30.24F
$$
MIZ007>008-015-300400-
EASTERN UPPER MICHIGAN

CITY           SKY/WX    TMP DP  RH WIND       PRES   REMARKS
KINROSS        CLOUDY    38  27  64 CALM      30.33R
MACKINAC ISLAN CLOUDY    38  29  69 N7        30.31R WCI  33
NEWBERRY       CLOUDY    34  28  78 N3        30.32R
S. S. MARIE    MOCLDY    40  28  62 W3        30.31R
MUNISING         N/A     37  31  78 N5        30.35R WCI  33
$$
MIZ004>006-011>014-085-300400-
CENTRAL UPPER MICHIGAN

CITY           SKY/WX    TMP DP  RH WIND       PRES   REMARKS
MANISTIQUE     MOCLDY    37  28  71 N6        30.31S WCI  32
ESCANABA       CLOUDY    38  25  59 N6        30.34R WCI  33
MENOMINEE      CLOUDY    43  26  51 NE14      30.28F
SAWYER-GWINN   CLOUDY    32  29  88 N5        30.33R WCI  27
$$
MIZ001>003-009>011-084-300400-
WESTERN UPPER MICHIGAN

CITY           SKY/WX    TMP DP  RH WIND       PRES   REMARKS
IRON MOUNTAIN  CLOUDY    40  17  39 NE3       30.28S
HOUGHTON       CLOUDY    36  21  54 SE6       30.31R WCI  31
COPPER HARBOR    N/A     35  26  69 CALM      30.34R
IRONWOOD       CLOUDY    36  14  40 E3        30.31R
$$

ABBREVIATIONS USED IN REMARKS
   TC - TEMPERATURE IN CELSIUS
  WCI - WIND CHILL INDEX
   HX - HEAT INDEX
  VSB - VISIBILITY





USA.gov is the U.S. government's official web portal to all federal, state and local government web resources and services.